Tracking 28052 objects as of 22-Sep-2023
HD Live streaming from Space Station
objects crossing your sky now

STARLINK-4123

Track STARLINK-4123 now!
10-day predictions
STARLINK-4123 is classified as:


NORAD ID: 53539
Int'l Code: 2022-101N
Perigee: 546.1 km
Apogee: 547.6 km
Inclination: 53.2 °
Period: 95.4 minutes
Semi major axis: 6917 km
RCS: Unknown
Launch date: August 19, 2022
Source: United States (US)
Launch site: AIR FORCE EASTERN TEST RANGE (AFETR)
Your satellite tracking list
Your tracking list is empty




NASA's NSSDC Master Catalog

Two Line Element Set (TLE):
1 53539U 22101N   23265.05169948  .00014303  00000-0  91479-3 0  9995
2 53539  53.2164 152.7529 0001094 109.2765 250.8345 15.08846416 60357
Source of the keplerian elements: AFSPC